GW6268 Weather Reports


time (UTC)temp
C
wind
direction
speed
KPH
gust
KPH
rain 1hr
cm
rain 24hr
cm
rain mn
cm
humidity
%
barometer
mb
20260506080802 9 345 11.3 25.7 0.00 0.10 0.10 86 1014.7
20260506080303 9 344 14.5 24.1 0.00 0.10 0.10 86 1014.8
20260506073302 8 332 12.9 22.5 0.00 0.10 0.10 86 1014.3
20260506072802 8 337 9.7 22.5 0.00 0.10 0.10 87 1014.4
20260506072305 8 335 11.3 22.5 0.00 0.10 0.10 87 1014.4
20260506071803 8 330 14.5 29.0 0.00 0.10 0.10 87 1014.3
20260506071302 8 329 9.7 19.3 0.00 0.10 0.10 88 1014.2
20260506070802 8 336 9.7 24.1 0.00 0.10 0.10 88 1014.3
20260506070302 8 339 14.5 25.7 0.00 0.10 0.10 88 1014.3
20260506062305 8 337 11.3 22.5 0.10 0.10 0.10 95 1013.8
20260506061802 7 345 14.5 19.3 0.10 0.10 0.10 96 1013.9
20260506061302 7 342 11.3 24.1 0.10 0.10 0.10 96 1013.8
20260506060803 7 333 8.0 22.5 0.10 0.10 0.10 96 1013.8
20260506060302 7 338 12.9 22.5 0.10 0.10 0.10 96 1013.8
20260506051302 8 313 9.7 19.3 0.00 0.00 0.00 89 1013.8
20260506050802 8 322 9.7 14.5 0.00 0.00 0.00 88 1013.8
20260506050302 7 351 8.0 12.9 0.00 0.00 0.00 87 1013.8
20260506044802 8 321 9.7 16.1 0.00 0.00 0.00 88 1013.9
20260506043304 8 328 4.8 14.5 0.00 0.00 0.00 89 1013.9
20260506042803 8 319 6.4 12.9 0.00 0.00 0.00 89 1013.8
20260506041803 8 325 8.0 19.3 0.00 0.00 0.00 89 1013.9
20260506040803 8 328 8.0 16.1 0.00 0.00 0.00 89 1013.9
20260506040302 8 325 8.0 19.3 0.00 0.00 0.00 89 1013.9
20260506035802 8 313 8.0 16.1 0.00 0.00 0.00 89 1013.9
20260506035305 8 346 8.0 16.1 0.00 0.00 0.00 89 1013.9
20260506034803 8 316 6.4 14.5 0.00 0.00 0.00 88 1013.8
20260506034303 8 328 11.3 20.9 0.00 0.00 0.00 88 1013.8
20260506033802 8 329 9.7 22.5 0.00 0.00 0.00 88 1013.9
20260506033302 8 329 9.7 22.5 0.00 0.00 0.00 88 1013.9
20260506032803 8 322 9.7 20.9 0.00 0.00 0.00 88 1013.9
20260506032305 8 328 9.7 22.5 0.00 0.00 0.00 88 1014.0
20260506031803 8 324 8.0 22.5 0.00 0.00 0.00 88 1014.0
20260506031303 8 332 11.3 22.5 0.00 0.00 0.00 88 1014.1
20260506030803 8 321 11.3 20.9 0.00 0.00 0.00 88 1014.1
20260506030302 8 332 9.7 19.3 0.00 0.00 0.00 88 1014.1
20260506025802 8 320 11.3 22.5 0.00 0.00 0.00 89 1014.1
20260506025305 8 316 11.3 19.3 0.00 0.00 0.00 89 1014.2
20260506024803 8 326 6.4 19.3 0.00 0.00 0.00 88 1014.2
20260506024302 8 329 8.0 16.1 0.00 0.00 0.00 89 1014.2
20260506023803 8 328 8.0 20.9 0.00 0.00 0.00 89 1014.2
20260506023302 8 307 6.4 14.5 0.00 0.00 0.00 89 1014.2
20260506022802 8 316 8.0 19.3 0.00 0.00 0.00 89 1014.2
20260506021803 8 314 6.4 19.3 0.00 0.00 0.00 89 1014.1
20260506021302 8 315 6.4 19.3 0.00 0.00 0.00 88 1014.2
20260506020802 8 318 8.0 14.5 0.00 0.00 0.00 88 1014.2
20260506020303 8 315 6.4 14.5 0.00 0.00 0.00 88 1014.2
20260506015802 8 318 4.8 16.1 0.00 0.00 0.00 88 1014.2
20260506015306 8 334 4.8 14.5 0.00 0.00 0.00 88 1014.2
20260506014803 8 309 8.0 16.1 0.00 0.00 0.00 88 1014.2
20260506014302 8 316 4.8 19.3 0.00 0.00 0.00 87 1014.2
20260506013803 8 304 8.0 14.5 0.00 0.00 0.00 88 1014.3
20260506013303 8 315 8.0 20.9 0.00 0.00 0.00 87 1014.3
20260506012804 8 313 6.4 14.5 0.00 0.00 0.00 87 1014.3
20260506012307 8 333 4.8 12.9 0.00 0.00 0.00 87 1014.3
20260506011302 8 287 8.0 16.1 0.00 0.00 0.00 87 1014.4
20260506010802 8 334 6.4 16.1 0.00 0.00 0.00 86 1014.5
20260506010303 8 316 8.0 20.9 0.00 0.00 0.00 85 1014.4
20260506005305 8 297 6.4 12.9 0.00 0.00 0.00 86 1014.5
20260506004802 8 315 9.7 19.3 0.00 0.00 0.00 85 1014.7
20260506004303 8 308 11.3 20.9 0.00 0.00 0.00 86 1014.7
20260506003803 8 304 9.7 20.9 0.00 0.00 0.00 86 1014.7
20260506003303 8 329 9.7 22.5 0.00 0.00 0.00 86 1014.7
20260506002803 8 302 8.0 20.9 0.00 0.00 0.00 86 1014.7
20260506002305 8 314 8.0 19.3 0.00 0.00 0.00 86 1014.7
20260506001803 8 321 9.7 19.3 0.00 0.00 0.00 86 1014.8
20260506001302 8 325 8.0 20.9 0.00 0.00 0.00 86 1014.9
20260506000803 8 317 9.7 19.3 0.00 0.00 0.00 86 1014.9
20260506000304 8 337 11.3 24.1 0.00 0.00 0.00 87 1014.9
20260505235803 8 331 8.0 20.9 0.00 0.00 0.00 86 1014.9
20260505234804 8 336 8.0 14.5 0.00 0.00 0.00 87 1015.0
20260505234302 8 308 8.0 19.3 0.00 0.00 0.00 87 1015.1
20260505233803 8 326 11.3 20.9 0.00 0.00 0.00 87 1015.1
20260505233302 8 324 8.0 19.3 0.00 0.00 0.00 87 1015.2
20260505232803 8 325 11.3 22.5 0.00 0.00 0.00 87 1015.1
20260505232305 8 324 9.7 20.9 0.00 0.00 0.00 87 1015.0
20260505231802 8 317 9.7 19.3 0.00 0.00 0.00 87 1015.0
20260505231303 8 320 9.7 22.5 0.00 0.00 0.00 87 1015.1
20260505230803 8 310 11.3 19.3 0.00 0.00 0.00 88 1015.1
20260505230302 8 324 11.3 22.5 0.00 0.00 0.00 87 1015.1
20260505225305 8 294 9.7 22.5 0.00 0.00 0.00 86 1015.1
20260505224802 8 319 8.0 25.7 0.00 0.00 0.00 86 1015.0
20260505224302 8 327 16.1 25.7 0.00 0.00 0.00 86 1015.0
20260505223803 8 329 11.3 24.1 0.00 0.00 0.00 86 1015.1
20260505223302 8 324 11.3 32.2 0.00 0.00 0.00 86 1015.1
20260505222802 8 325 9.7 20.9 0.00 0.00 0.00 86 1015.2
20260505222305 8 342 11.3 22.5 0.00 0.00 0.00 85 1015.2
20260505221803 8 325 8.0 24.1 0.00 0.00 0.00 85 1015.2
20260505220803 8 331 14.5 22.5 0.00 0.00 0.00 84 1015.3
20260505220303 8 327 9.7 19.3 0.00 0.00 0.00 84 1015.3
20260505215804 8 322 9.7 19.3 0.00 0.00 0.00 85 1015.5
20260505215305 8 321 9.7 20.9 0.00 0.00 0.00 85 1015.5
20260505214803 9 315 6.4 14.5 0.00 0.00 0.00 85 1015.6
20260505214302 8 344 8.0 19.3 0.00 0.00 0.00 84 1015.6
20260505213803 9 327 6.4 24.1 0.00 0.00 0.00 85 1015.6
20260505213304 9 327 9.7 16.1 0.00 0.00 0.00 85 1015.6
20260505212803 9 329 9.7 20.9 0.00 0.00 0.00 86 1015.5
20260505211802 9 325 9.7 19.3 0.00 0.00 0.00 86 1015.7
20260505210802 9 328 8.0 20.9 0.00 0.00 0.00 86 1015.7
20260505205305 9 345 9.7 19.3 0.00 0.00 0.00 85 1015.7
20260505204803 9 324 9.7 19.3 0.00 0.00 0.00 85 1015.7
20260505204304 9 341 9.7 19.3 0.00 0.00 0.00 86 1015.6
20260505203803 9 332 9.7 22.5 0.00 0.00 0.00 85 1015.6
20260505203302 9 341 8.0 22.5 0.00 0.00 0.00 86 1015.6
20260505202803 9 320 12.9 27.4 0.00 0.00 0.00 86 1015.6
20260505201805 9 343 14.5 25.7 0.00 0.00 0.00 87 1015.4
20260505201303 9 337 11.3 24.1 0.00 0.00 0.00 88 1015.4
20260505200803 10 331 11.3 19.3 0.00 0.00 0.00 88 1015.4
20260505200303 10 324 12.9 22.5 0.00 0.00 0.00 88 1015.4
20260505195803 10 332 11.3 24.1 0.00 0.00 0.00 89 1015.3
20260505195305 10 336 11.3 22.5 0.00 0.00 0.00 89 1015.3
20260505194303 10 316 9.7 19.3 0.00 0.00 0.00 88 1015.3
20260505193803 10 325 11.3 22.5 0.00 0.00 0.00 88 1015.2
20260505193303 10 324 12.9 27.4 0.00 0.00 0.00 88 1015.2
20260505192804 10 339 9.7 19.3 0.00 0.00 0.00 88 1015.2
20260505192305 10 318 14.5 29.0 0.00 0.00 0.00 88 1015.2
20260505191803 10 327 11.3 16.1 0.00 0.00 0.00 88 1015.2
20260505191302 10 331 11.3 19.3 0.00 0.00 0.00 88 1015.1
20260505190303 10 336 9.7 24.1 0.00 0.00 0.00 88 1014.9
20260505185305 10 349 8.0 20.9 0.00 0.00 0.00 88 1014.9
20260505184803 10 335 8.0 22.5 0.00 0.00 0.00 88 1014.7
20260505184303 10 333 11.3 25.7 0.00 0.00 0.00 88 1014.7
20260505183803 10 324 11.3 20.9 0.00 0.00 0.00 88 1014.8
20260505183303 10 339 11.3 19.3 0.00 0.00 0.00 88 1014.8
20260505182803 10 338 8.0 19.3 0.00 0.00 0.00 88 1014.9
20260505182306 10 331 9.7 20.9 0.00 0.00 0.00 87 1014.9
20260505181802 10 328 12.9 19.3 0.00 0.00 0.00 87 1014.9
20260505181303 10 334 11.3 24.1 0.00 0.00 0.00 87 1014.7
20260505180803 10 346 8.0 16.1 0.00 0.00 0.00 87 1014.8
20260505180303 10 329 8.0 22.5 0.00 0.00 0.00 87 1014.8
20260505175804 10 338 12.9 25.7 0.00 0.00 0.00 87 1014.9
20260505175306 10 329 9.7 22.5 0.00 0.00 0.00 88 1015.0
20260505174803 10 337 11.3 22.5 0.00 0.00 0.00 87 1014.9
20260505174302 10 341 9.7 22.5 0.00 0.00 0.00 87 1014.9
20260505173804 10 345 9.7 16.1 0.00 0.00 0.00 87 1014.9
20260505173302 10 335 12.9 19.3 0.00 0.00 0.00 87 1015.0
20260505172802 10 312 9.7 19.3 0.00 0.00 0.00 87 1015.0
20260505172306 10 334 9.7 20.9 0.00 0.00 0.00 87 1014.8
20260505171803 10 318 8.0 14.5 0.00 0.00 0.00 87 1014.8
20260505171303 10 343 9.7 22.5 0.00 0.00 0.00 86 1014.9
20260505170303 11 334 9.7 20.9 0.00 0.00 0.00 86 1015.0
20260505165804 11 345 6.4 19.3 0.00 0.00 0.00 86 1015.0
20260505165306 11 347 11.3 19.3 0.00 0.00 0.00 86 1015.0
20260505164803 11 320 12.9 19.3 0.00 0.00 0.00 85 1014.9
20260505163804 11 333 6.4 14.5 0.00 0.00 0.00 86 1014.7
20260505163303 11 345 9.7 16.1 0.00 0.00 0.00 85 1014.7
20260505162803 11 345 9.7 19.3 0.00 0.00 0.00 85 1014.6
20260505162306 11 342 6.4 22.5 0.00 0.00 0.00 85 1014.6
20260505161802 11 344 11.3 19.3 0.00 0.00 0.00 85 1014.4
20260505161305 11 333 9.7 19.3 0.00 0.00 0.00 86 1014.5
20260505160805 11 328 11.3 19.3 0.00 0.00 0.00 85 1014.6
20260505160303 11 315 8.0 16.1 0.00 0.00 0.00 86 1014.5
20260505153303 11 329 9.7 19.3 0.00 0.00 0.00 87 1014.7
20260505152803 11 351 9.7 19.3 0.00 0.00 0.00 86 1014.7
20260505152305 11 352 8.0 19.3 0.00 0.00 0.00 86 1014.7
20260505150803 11 351 9.7 19.3 0.00 0.00 0.00 85 1014.7
20260505150302 11 16 8.0 16.1 0.00 0.00 0.00 87 1014.7
20260505140303 11 350 9.7 16.1 0.00 0.00 0.00 87 1014.8
20260505124802 11 348 9.7 19.3 0.00 0.00 0.00 85 1014.8
20260505124303 11 340 9.7 19.3 0.00 0.00 0.00 84 1014.7
20260505123805 11 325 9.7 20.9 0.00 0.00 0.00 84 1014.6
20260505123303 11 334 9.7 20.9 0.00 0.00 0.00 84 1014.7
20260505122803 11 346 9.7 19.3 0.00 0.00 0.00 84 1014.8
20260505122306 11 336 9.7 19.3 0.00 0.00 0.00 85 1014.7
20260505121303 11 333 12.9 19.3 0.00 0.00 0.00 85 1014.6
20260505120303 11 347 8.0 20.9 0.00 0.00 0.00 84 1014.6
20260505115805 11 332 8.0 20.9 0.00 0.00 0.00 85 1014.6
20260505114804 11 14 9.7 20.9 0.00 0.00 0.00 85 1014.6
20260505114304 11 339 9.7 19.3 0.00 0.00 0.00 85 1014.7
20260505113804 11 315 9.7 19.3 0.00 0.00 0.00 85 1014.6
20260505113303 11 5 8.0 16.1 0.00 0.00 0.00 85 1014.7
20260505112803 11 293 9.7 20.9 0.00 0.00 0.00 86 1014.7
20260505112304 11 335 8.0 19.3 0.00 0.00 0.00 85 1014.7
20260505111803 12 304 11.3 19.3 0.00 0.00 0.00 84 1014.7
20260505110803 12 307 8.0 16.1 0.00 0.00 0.00 86 1014.7
20260505110303 11 325 8.0 19.3 0.00 0.00 0.00 87 1014.7
20260505101803 12 309 8.0 12.9 0.00 0.00 0.00 87 1015.1
20260505101303 12 287 6.4 14.5 0.00 0.00 0.00 88 1015.0
20260505100803 11 300 4.8 14.5 0.00 0.00 0.00 87 1015.0
20260505100303 12 312 8.0 12.9 0.00 0.00 0.00 86 1015.1
20260505095802 12 291 8.0 14.5 0.00 0.00 0.00 86 1015.0
20260505095304 12 301 6.4 12.9 0.00 0.00 0.00 86 1015.0
20260505094804 12 308 8.0 14.5 0.00 0.00 0.00 86 1015.0
20260505094304 12 308 4.8 12.9 0.00 0.00 0.00 85 1015.0
20260505093803 12 311 6.4 12.9 0.00 0.00 0.00 85 1015.0
20260505093304 12 336 4.8 9.7 0.00 0.00 0.00 84 1014.9
20260505092803 12 338 4.8 9.7 0.00 0.00 0.00 87 1015.1
20260505091803 11 299 4.8 8.0 0.00 0.00 0.00 87 1014.8
20260505090803 11 299 4.8 9.7 0.00 0.00 0.00 88 1015.0
20260505085803 11 267 4.8 9.7 0.00 0.00 0.00 87 1015.0
20260505085304 11 284 3.2 9.7 0.00 0.00 0.00 89 1015.0
20260505084303 11 293 4.8 8.0 0.00 0.00 0.00 87 1015.0
20260505083804 11 324 3.2 8.0 0.00 0.00 0.00 88 1015.1
20260505082805 11 279 3.2 4.8 0.00 0.00 0.00 88 1015.0
20260505082304 11 350 3.2 4.8 0.00 0.00 0.00 89 1014.9
20260505081803 11 300 3.2 8.0 0.00 0.00 0.00 90 1015.2
20260505081305 11 287 1.6 4.8 0.00 0.00 0.00 90 1015.1